Torna al catalogo

BSAT-2C

AttivoComunicazioniGEO
NORAD 27830·PAYLOAD·🇯🇵 Japan

Lanciato Jun 11, 2003 da Guiana Space Centre

Loading…

TLE

AggiornatoSource: Space-Track

Epoca: Sep 14, 2026, 06:48 UTC

1 27830U 03028A   26257.28339767 -.00000262  00000-0  00000-0 0  9991
2 27830  10.3790  51.1385 0005736 241.1665 129.8397  0.99203378 47541

Traccia BSAT-2C in tempo reale con AllMySat

Download on the App Store